www.pogodaiklimat.ru

Погода и климат >> Архив погоды >> Малайзия >> Kuantan


ПОГОДА в Kuantan

  • Прогноз погоды в Kuantan
  • Монитор погоды в Kuantan
  • Климат города

АРХИВ ПОГОДЫ в Kuantan

Время (UTC), дата Ветер
(напр.,м/с)
 
Видим.   Явления Облачность Т
(С)
Тd
(С)
f
(%)
Тe
(С)
Тes
(С)
Комфортность P
(гПа)
Po
(гПа)
Тmin
(С)
Tmax
(С)
R
(мм)
R24
(мм)
S
(см)
21 15.04 СВ 1 10 км мгла 6/1 750 м
[Sc Ac trans Ci sp]
+24.5 +23.7 95 +33 +33 очень
душно
1007.9 1006.1
00 16.04 штиль 0 15 км мгла 8/1 660 м
[Cu hum Ac trans Ci sp]
+25.1 +23.9 93 +34 +35 очень
душно
1009.9 1008.1 +23.7
03 16.04 С 3 18 км мгла 9/3 600 м
[Cu med, cong Ac trans Ci sp]
+30.9 +25.4 73 +45 +50 опасность
перегрева
1011.0 1009.2
06 16.04 СВ 2 7000 м слабый дождь {ливн. осадки} 9/5 120 м
[Cb cap Ac trans Ci sp]
+28.6 +25.5 83 +42 +49 опасность
перегрева
1010.3 1008.5 4
09 16.04 ЮВ 2 10 км мгла 9/5 500 м
[Cb cap Ac cast Ci sp]
+29.6 +26.5 83 +45 +47 опасность
перегрева
1008.3 1006.5
12 16.04 С 1 12 км мгла 9/1 720 м
[Sc Ac trans Ci sp]
+27.0 +25.5 92 +40 +40 очень
душно
1009.9 1008.1 +31.5 11
15 16.04 С 1 12 км мгла 9/1 720 м
[Sc Ac trans Ci sp]
+25.8 +24.9 95 +37 +37 очень
душно
1011.9 1010.1
18 16.04 штиль 0 12 км мгла 9/3 720 м
[Sc Ac trans Ci sp]
+26.0 +24.7 93 +37 +37 очень
душно
1010.5 1008.7
21 16.04 штиль 0 12 км дымка 9/3 240 м
[Sc Ac trans Ci sp]
+25.0 +24.3 96 +35 +35 очень
душно
1009.8 1008.0
00 17.04 штиль 0 15 км гроза без осадков 9/4 500 м
[Cb cap Ac trans Ci fib]
+25.1 +24.3 95 +35 +35 очень
душно
1011.8 1010.0 +24.5 15
03 17.04 СВ 2 17 км в посл. час гроза 9/4 570 м
[Cu med, cong Ac lent Ci sp]
+30.3 +26.1 78 +46 +51 опасность
перегрева
1012.8 1011.0
06 17.04 СВ 3 17 км мгла 9/4 570 м
[Cu Sc Ac trans Ci fib]
+30.9 +25.8 74 +46 +52 опасность
перегрева
1010.7 1008.9 0.0
09 17.04 В 3 17 км мгла 9/4 500 м
[Cb calv Ac trans Ci sp]
+31.8 +26.3 73 +48 +50 опасность
перегрева
1008.3 1006.5
12 17.04 СВ 2 15 км мгла 8/1 720 м
[Sc diur, vesp Ac trans Ci sp]
+28.4 +25.1 82 +41 +41 опасность
перегрева
1009.3 1007.5 +32.4
15 17.04 СВ 1 13 км мгла 8/3 720 м
[Sc Ac trans Ci sp]
+26.4 +24.9 91 +38 +38 очень
душно
1011.3 1009.5
18 17.04 СВ 1 12 км мгла 8/1 720 м
[Sc Ac trans Ci sp]
+25.7 +24.5 93 +36 +36 очень
душно
1011.2 1009.4
21 17.04 СВ 1 8000 м дымка 9/3 240 м
[Sc Ac trans Ci sp]
+24.6 +23.9 96 +34 +34 очень
душно
1009.8 1008.0
00 18.04 С 2 14 км мгла 9/3 600 м
[Cu Sc Ac trans Ci sp]
+25.3 +24.4 95 +35 +36 очень
душно
1011.5 1009.7 +24.2 0.0
03 18.04 СВ 2 14 км мгла {дождь} 9/3 600 м
[Cu med, cong Ac lent Ci sp]
+29.8 +26.0 80 +45 +51 опасность
перегрева
1012.4 1010.6
06 18.04 СЗ 2 9000 м гроза, ливневой дождь 9/6 500 м
[Cb cap Ac trans Ci sp]
+27.0 +25.3 90 +39 +44 очень
душно
1010.3 1008.5 0.2
09 18.04 С 5 13 км слабый ливневой дождь, в посл. час гроза 9/6 500 м
[Cb cap Ac trans Ci sp]
+26.0 +24.2 90 +36 +37 очень
душно
1009.2 1007.4
12 18.04 СВ 1 10 км в посл. час дождь 9/3 720 м
[Sc Ac trans Cs]
+25.2 +24.3 95 +35 +35 очень
душно
1009.6 1007.8 +31.7 1
15 18.04 С 3 10 км мгла 9/3 720 м
[Sc Ac trans Ci fib]
+25.0 +23.9 94 +34 +34 очень
душно
1010.7 1008.9
18 18.04 СВ 1 10 км мгла 9/3 720 м
[Sc Ac trans Ci fib]
+25.0 +23.9 94 +34 +34 очень
душно
1009.9 1008.1
21 18.04 В 1 7000 м дымка 8/3 150 м
[St Ac trans Ci sp]
+24.1 +23.6 97 +33 +33 очень
душно
1008.8 1007.0
00 19.04 С 2 12 км мгла 8/1 750 м
[Sc Ac trans Ci sp]
+24.6 +23.7 95 +33 +34 очень
душно
1009.7 1007.9 +23.7 1
03 19.04 С 3 18 км мгла 8/4 600 м
[Cu med, cong Ac trans Ci sp]
+30.4 +26.3 79 +46 +52 опасность
перегрева
1011.1 1009.3
06 19.04 С 4 14 км осадки на расстоянии 9/4 480 м
[Cb cap Ac trans Ci sp]
+30.2 +26.4 80 +46 +51 опасность
перегрева
1008.8 1007.0
09 19.04 СВ 2 12 км гроза без осадков 9/5 480 м
[Cb cap Ac trans Ci sp]
+30.1 +26.2 80 +46 +48 опасность
перегрева
1007.1 1005.3
12 19.04 С 2 12 км мгла 8/1 720 м
[Sc Ac trans Ci sp]
+27.2 +25.4 90 +40 +40 очень
душно
1008.2 1006.4 +30.8
15 19.04 С 2 12 км мгла 8/1 750 м
[Sc Ac trans Ci sp]
+25.5 +24.1 92 +35 +35 очень
душно
1010.1 1008.3
18 19.04 ЮВ 2 12 км гроза без осадков 8/3 500 м
[Cb cap Ac trans Ci sp]
+25.2 +23.9 93 +35 +35 очень
душно
1009.8 1008.0
21 19.04 В 1 9000 м гроза без осадков 9/4 500 м
[Cb cap Ac lent Ci sp]
+24.7 +23.9 95 +34 +34 очень
душно
1008.5 1006.7
00 20.04 С 1 4500 м гроза, ливневой дождь 9/5 60 м
[Cb cap Ac trans Cs]
+24.1 +23.7 98 +33 +33 очень
душно
1009.6 1007.8 +24.0 4
03 20.04 СВ 3 14 км мгла 9/4 500 м
[Cb cap Ac trans Ci sp]
+29.7 +26.0 81 +45 +50 опасность
перегрева
1010.5 1008.7
06 20.04 В 4 8000 м осадки на расстоянии 9/4 480 м
[Cb cap Ac trans Ci sp]
+30.8 +26.1 76 +46 +52 опасность
перегрева
1008.7 1006.9 0.8
09 20.04 С 2 12 км гроза без осадков 9/5 300 м
[Cb cap Ac trans Ci sp]
+28.3 +25.4 84 +41 +43 опасность
перегрева
1007.3 1005.5
12 20.04 штиль 0 12 км мгла 9/3 750 м
[Sc Ac trans Ci sp]
+27.2 +25.8 92 +40 +40 очень
душно
1009.0 1007.2 +31.2
15 20.04 С 1 12 км мгла 9/3 750 м
[Sc Ac trans Ci sp]
+25.5 +24.7 95 +36 +36 очень
душно
1011.0 1009.2
18 20.04 С 3 12 км дымка 9/3 750 м
[Sc Ac lent Ci fib]
+24.9 +24.4 97 +35 +35 очень
душно
1009.4 1007.6
21 20.04 штиль 0 10 км дымка 8/1 240 м
[Sc Ac trans Ci sp]
+24.5 +23.8 96 +33 +33 очень
душно
1008.4 1006.6
00 21.04 штиль 0 15 км дымка 8/1 720 м
[Sc Ac trans Ci fib]
+24.6 +23.9 96 +34 +35 очень
душно
1009.6 1007.8 +23.7 0.8
03 21.04 СВ 3 18 км мгла 8/4 540 м
[Cu hum Ac trans Ci fib]
+30.3 +26.0 78 +46 +51 опасность
перегрева
1010.9 1009.1
06 21.04 Ю 3 17 км мгла 8/5 540 м
[Cu hum Ac trans Ci fib]
+31.2 +26.0 74 +47 +53 опасность
перегрева
1008.8 1007.0
09 21.04 В 4 16 км мгла 8/4 570 м
[Cu med, cong Ac trans Ci sp]
+31.0 +26.0 75 +46 +48 опасность
перегрева
1006.9 1005.1
12 21.04 штиль 0 14 км мгла 8/4 500 м
[Sc diur, vesp Ac trans Ci sp]
+28.0 +25.3 85 +41 +41 опасность
перегрева
1008.2 1006.4 +33.2
15 21.04 С 1 13 км мгла 8/3 720 м
[Sc Ac trans Ci sp]
+26.0 +24.7 93 +37 +37 очень
душно
1010.3 1008.5
18 21.04 С 1 13 км мгла 8/3 720 м
[Sc Ac trans Ci sp]
+25.0 +24.1 95 +34 +34 очень
душно
1009.8 1008.0
21 21.04 СВ 1 12 км мгла 8/3 750 м
[Sc Ac trans Ci sp]
+24.4 +23.6 95 +33 +33 очень
душно
1008.6 1006.8
00 22.04 С 2 12 км мгла 8/1 500 м
[Cb cap Ac trans Ci sp]
+24.6 +23.8 95 +33 +34 очень
душно
1009.8 1008.0 +23.3
03 22.04 СВ 2 18 км мгла 8/4 570 м
[Cu med, cong Ac trans Ci sp]
+30.6 +25.8 76 +46 +52 опасность
перегрева
1010.1 1008.3
06 22.04 ЮВ 2 16 км мгла 9/4 540 м
[Cu med, cong Ac trans Ci sp]
+32.1 +26.1 71 +48 +55 опасность
перегрева
1007.8 1006.0
09 22.04 ЮВ 4 16 км мгла 9/3 570 м
[Cu med, cong Ac trans Ci sp]
+32.3 +26.0 69 +48 +50 опасность
перегрева
1006.0 1004.2
12 22.04 СВ 2 12 км мгла 8/1 750 м
[Sc Ac trans Ci fib]
+28.6 +25.3 82 +42 +42 опасность
перегрева
1007.6 1005.8 +32.9
15 22.04 С 1 12 км мгла 8/1 720 м
[Sc Ac trans Ci fib]
+26.0 +24.7 93 +37 +37 очень
душно
1009.5 1007.7
18 22.04 СВ 1 11 км мгла 8/1 720 м
[Sc Ac trans Ci fib]
+26.1 +24.8 93 +37 +37 очень
душно
1008.4 1006.6

 

Местоположение метеостанции Kuantan (Малайзия): широта 3.78 долгота 103.21 высота над уровнем моря 16 м.

В архиве по умолчанию представлена погода в Kuantan за последнюю неделю. Архивные данные за месяц целиком и за предыдущие месяцы, начиная с января 2011 года, Вы можете получить, выбрав интересующий диапазон дат из раскрывающегося списка и нажав кнопку "Ввод!".


*Определитесь, кто Вы:
робот инопланетянин человек

Внимание! Время в таблицах - всемирное. Для получения местного времени необходимо прибавить поправку, которая в Kuantan равна 7 ч.

Смотрите также архив погоды в соседних городах и на ближайших метеорологических станциях:

Погода в Kuala Trengganu (Малайзия) (178 км)
Погода в Mersing (Малайзия) (198 км)
Погода в Kuala Lumpur (Малайзия) (198 км)
Погода в Malacca (Малайзия) (199 км)
Погода в Kuala Lumpur Int Airport (Малайзия) (205 км)
Погода в Cameron Highlands (Малайзия) (218 км)
Погода в Johore Bharu / Senai (Малайзия) (245 км)
Погода в Ipoh (Малайзия) (250 км)
Погода в Singapore (Сингапур) (281 км)
Погода в Sitiawan (Малайзия) (283 км)

Пояснения к столбцам:

Ветер - указаны скорость ветра в м/с - средняя за 10 мин, порывы в срок и между сроками (в фигурных скобках) и направление, откуда дует ветер: С - северный, СВ - северо-восточный, В - восточный, ЮВ - юго-восточный, Ю - южный, ЮЗ - юго-западный, З - западный, СЗ - северо-западный.
Видимость - горизонтальная дальность видимости в метрах или километрах. При видимости от 1 до 10 км при отсутствии осадков обычно наблюдается дымка, при ухудшении видимости до 1 км и менее - туман. В сухую погоду видимость может ухудшаться дымом, пылью или мглою.
Явления - указаны атмосферные явления, наблюдавшиеся в срок или в последний час перед сроком; фигурными скобками обозначены явления, наблюдавшиеся между сроками (за 1-3 часа до срока); квадратными скобками обозначены град или гололедные отложения с указанием их диаметра в мм.
Облачность - указаны через наклонную черту общая и нижняя облачность в баллах и высота нижней границы облаков в метрах; квадратными скобками обозначены формы облаков: Ci - перистые, Cs - перисто-слоистые, Cc - перисто-кучевые, Ac - высококучевые, As - высокослоистые, Sc - слоисто-кучевые, Ns - слоисто-дождевые, Cu - кучевые, Cb - кучево-дождевые. Подробнее классификацию облаков см. в Атласе облаков (PDF).
T - Температура воздуха - температура, измеренная на высоте 2 м над землей.
Td - Температура точки росы - температура, при понижении до которой содержащийся в воздухе водяной пар достигнет насыщения.
f - Относительная влажность воздуха - влажноcть воздуха, измеренная на высоте 2 м над землей.
Te - Эффективная температура - температура, которую ощущает одетый по сезону человек в тени. Характеристика душности погоды. При расчете учитывается влияние влажности воздуха и скорости ветра на теплоощущения человека.
Tes - Эффективная температура на солнце - температура, которую ощущает человек, с поправкой на солнечный нагрев. Характеристика знойности погоды. Зависит от высоты солнца над горизонтом, облачности и скорости ветра. Ночью, в пасмурную погоду, а также при ветре 12 м/с и более поправка равна нулю.
P - Атмосферное давление - приведенное к уровню моря атмосферное давление.
Po - Атмосферное давление - измеренное на уровне метеостанции атмосферное давление.
Tmin - Минимальная температура - минимум температуры воздуха на высоте 2 м над землей.
Tmax - Максимальная температура - максимум температуры воздуха на высоте 2 м над землей.
R - Количество осадков - Количество выпавших осадков за период времени, мм. При наведении курсора мыши на число - период времени, за который выпало указанное количество осадков.
R24 - Количество осадков - Количество выпавших осадков за 24 часа, мм.
S - Снежный покров - Высота снежного покрова, см. При наведении курсора мыши на число - состояние снежного покрова и степень покрытия местности в баллах.